Tracking 27419 objects as of 10-Jun-2023
HD Live streaming from Space Station
objects crossing your sky now

USA 136

Track USA 136 now!
USA 136 is classified as:


NORAD ID: 25034
Int'l Code: 1997-068A
Perigee: 3,545.5 km
Apogee: 36,817.2 km
Inclination: 63.6 °
Period: 717.7 minutes
Semi major axis: 26552 km
RCS: Unknown
Launch date: November 8, 1997
Source: United States (US)
Launch site: AIR FORCE EASTERN TEST RANGE (AFETR)

Signals intelligence; surveillance of cellular phones.
Your satellite tracking list
Your tracking list is empty




NASA's NSSDC Master Catalog

Two Line Element Set (TLE):
1 25034U 97068A   22058.95501692 0.00000000  00000-0  00000-0 0    01
2 25034  63.6025  85.5132 6265301 277.2229  82.7770  2.00654165    06
Source of the keplerian elements: McCants